"Time","Value","Approval","myLocation"
"2023-03-30 00:00",11.4877983246958,"Approved","OW407"
"2023-03-30 01:00",11.4847975004379,"Approved","OW407"
"2023-03-30 02:00",11.48779667618,"Approved","OW407"
"2023-03-30 03:00",11.4937958519221,"Approved","OW407"
"2023-03-30 04:00",11.4977950276642,"Approved","OW407"
"2023-03-30 05:00",11.5037942034062,"Approved","OW407"
"2023-03-30 06:00",11.5087933791483,"Approved","OW407"
"2023-03-30 07:00",11.5147925548904,"Approved","OW407"
"2023-03-30 08:00",11.5217917306325,"Approved","OW407"
"2023-03-30 09:00",11.5277909063746,"Approved","OW407"
"2023-03-30 10:00",11.5317900821167,"Approved","OW407"
"2023-03-30 11:00",11.5327892578588,"Approved","OW407"
"2023-03-30 12:00",11.5357884336009,"Approved","OW407"
"2023-03-30 13:00",11.540787609343,"Approved","OW407"
"2023-03-30 14:00",11.5427867850851,"Approved","OW407"
"2023-03-30 15:00",11.5387859608271,"Approved","OW407"
"2023-03-30 16:00",11.5047851365692,"Approved","OW407"
"2023-03-30 17:00",11.4887843123113,"Approved","OW407"
"2023-03-30 18:00",11.4887834880534,"Approved","OW407"
"2023-03-30 19:00",11.4937826637955,"Approved","OW407"
"2023-03-30 20:00",11.4997818395376,"Approved","OW407"
"2023-03-30 21:00",11.5007810152797,"Approved","OW407"
"2023-03-30 22:00",11.5007801910218,"Approved","OW407"
"2023-03-30 23:00",11.5007793667639,"Approved","OW407"
"2023-03-31 00:00",11.4987785425059,"Approved","OW407"
"2023-03-31 01:00",11.493777718248,"Approved","OW407"
"2023-03-31 02:00",11.4917768939901,"Approved","OW407"
"2023-03-31 03:00",11.4927760697322,"Approved","OW407"
"2023-03-31 04:00",11.4977752454743,"Approved","OW407"
"2023-03-31 05:00",11.5027744212164,"Approved","OW407"
"2023-03-31 06:00",11.5057735969585,"Approved","OW407"
"2023-03-31 07:00",11.5097727727006,"Approved","OW407"
"2023-03-31 08:00",11.5137719484427,"Approved","OW407"
"2023-03-31 09:00",11.5177711241848,"Approved","OW407"
"2023-03-31 10:00",11.5217702999268,"Approved","OW407"
"2023-03-31 11:00",11.5247694756689,"Approved","OW407"
"2023-03-31 12:00",11.525768651411,"Approved","OW407"
"2023-03-31 13:00",11.5297678271531,"Approved","OW407"
"2023-03-31 14:00",11.5357670028952,"Approved","OW407"
"2023-03-31 15:00",11.5297661786373,"Approved","OW407"
"2023-03-31 16:00",11.5087653543794,"Approved","OW407"
"2023-03-31 17:00",11.4977645301215,"Approved","OW407"
"2023-03-31 18:00",11.4957637058636,"Approved","OW407"
"2023-03-31 19:00",11.4967628816057,"Approved","OW407"
"2023-03-31 20:00",11.4987620573477,"Approved","OW407"
"2023-03-31 21:00",11.5017612330898,"Approved","OW407"
"2023-03-31 22:00",11.5007604088319,"Approved","OW407"
"2023-03-31 23:00",11.503759584574,"Approved","OW407"
"2023-04-01 00:00",11.5057587603161,"Approved","OW407"
"2023-04-01 01:00",11.5057579360582,"Approved","OW407"
"2023-04-01 02:00",11.5067571118003,"Approved","OW407"
"2023-04-01 03:00",11.5097562875424,"Approved","OW407"
"2023-04-01 04:00",11.5107554632845,"Approved","OW407"
"2023-04-01 05:00",11.5097546390266,"Approved","OW407"
"2023-04-01 06:00",11.5107538147686,"Approved","OW407"
"2023-04-01 07:00",11.5127529905107,"Approved","OW407"
"2023-04-01 08:00",11.5127521662528,"Approved","OW407"
"2023-04-01 09:00",11.5187513419949,"Approved","OW407"
"2023-04-01 10:00",11.517750517737,"Approved","OW407"
"2023-04-01 11:00",11.5177496934791,"Approved","OW407"
"2023-04-01 12:00",11.5177488692212,"Approved","OW407"
"2023-04-01 13:00",11.5187480449633,"Approved","OW407"
"2023-04-01 14:00",11.5217472207054,"Approved","OW407"
"2023-04-01 15:00",11.5217463964474,"Approved","OW407"
"2023-04-01 16:00",11.5117455721895,"Approved","OW407"
"2023-04-01 17:00",11.5027447479316,"Approved","OW407"
"2023-04-01 18:00",11.4987439236737,"Approved","OW407"
"2023-04-01 19:00",11.4897430994158,"Approved","OW407"
"2023-04-01 20:00",11.4907422751579,"Approved","OW407"
"2023-04-01 21:00",11.4917414509,"Approved","OW407"
"2023-04-01 22:00",11.4927406266421,"Approved","OW407"
"2023-04-01 23:00",11.4927398023842,"Approved","OW407"
"2023-04-02 00:00",11.4937389781263,"Approved","OW407"
"2023-04-02 01:00",11.5067381538683,"Approved","OW407"
"2023-04-02 02:00",11.5067373296104,"Approved","OW407"
"2023-04-02 03:00",11.5137365053525,"Approved","OW407"
"2023-04-02 04:00",11.5187356810946,"Approved","OW407"
"2023-04-02 05:00",11.5227348568367,"Approved","OW407"
"2023-04-02 06:00",11.5257340325788,"Approved","OW407"
"2023-04-02 07:00",11.5257332083209,"Approved","OW407"
"2023-04-02 08:00",11.523732384063,"Approved","OW407"
"2023-04-02 09:00",11.5277315598051,"Approved","OW407"
"2023-04-02 10:00",11.5347307355472,"Approved","OW407"
"2023-04-02 11:00",11.5397299112892,"Approved","OW407"
"2023-04-02 12:00",11.5467290870313,"Approved","OW407"
"2023-04-02 13:00",11.5497282627734,"Approved","OW407"
"2023-04-02 14:00",11.5537274385155,"Approved","OW407"
"2023-04-02 15:00",11.5457266142576,"Approved","OW407"
"2023-04-02 16:00",11.5087257899997,"Approved","OW407"
"2023-04-02 17:00",11.4947249657418,"Approved","OW407"
"2023-04-02 18:00",11.4907241414839,"Approved","OW407"
"2023-04-02 19:00",11.489723317226,"Approved","OW407"
"2023-04-02 20:00",11.4907224929681,"Approved","OW407"
"2023-04-02 21:00",11.4917216687101,"Approved","OW407"
"2023-04-02 22:00",11.4947208444522,"Approved","OW407"
"2023-04-02 23:00",11.4957200201943,"Approved","OW407"
"2023-04-03 00:00",11.4967191959364,"Approved","OW407"
"2023-04-03 01:00",11.5027183716785,"Approved","OW407"
"2023-04-03 02:00",11.5057175474206,"Approved","OW407"
"2023-04-03 03:00",11.5127167231627,"Approved","OW407"
"2023-04-03 04:00",11.5167158989048,"Approved","OW407"
"2023-04-03 05:00",11.5207150746469,"Approved","OW407"
"2023-04-03 06:00",11.5257142503889,"Approved","OW407"
"2023-04-03 07:00",11.528713426131,"Approved","OW407"
"2023-04-03 08:00",11.5317126018731,"Approved","OW407"
"2023-04-03 09:00",11.5357117776152,"Approved","OW407"
"2023-04-03 10:00",11.5407109533573,"Approved","OW407"
"2023-04-03 11:00",11.5447101290994,"Approved","OW407"
"2023-04-03 12:00",11.5457093048415,"Approved","OW407"
"2023-04-03 13:00",11.5467084805836,"Approved","OW407"
"2023-04-03 14:00",11.5447076563257,"Approved","OW407"
"2023-04-03 15:00",11.5367068320678,"Approved","OW407"
"2023-04-03 16:00",11.5057060078098,"Approved","OW407"
"2023-04-03 17:00",11.4937051835519,"Approved","OW407"
"2023-04-03 18:00",11.490704359294,"Approved","OW407"
"2023-04-03 19:00",11.4897035350361,"Approved","OW407"
"2023-04-03 20:00",11.4907027107782,"Approved","OW407"
"2023-04-03 21:00",11.4937018865203,"Approved","OW407"
"2023-04-03 22:00",11.4917010622624,"Approved","OW407"
"2023-04-03 23:00",11.4927002380045,"Approved","OW407"
"2023-04-04 00:00",11.5006994137466,"Approved","OW407"
"2023-04-04 01:00",11.5046985894887,"Approved","OW407"
"2023-04-04 02:00",11.5066977652307,"Approved","OW407"
"2023-04-04 03:00",11.5116969409728,"Approved","OW407"
"2023-04-04 04:00",11.5186961167149,"Approved","OW407"
"2023-04-04 05:00",11.522695292457,"Approved","OW407"
"2023-04-04 06:00",11.5276944681991,"Approved","OW407"
"2023-04-04 07:00",11.5356936439412,"Approved","OW407"
"2023-04-04 08:00",11.5396928196833,"Approved","OW407"
"2023-04-04 09:00",11.5436919954254,"Approved","OW407"
"2023-04-04 10:00",11.5476911711675,"Approved","OW407"
"2023-04-04 11:00",11.5506903469095,"Approved","OW407"
"2023-04-04 12:00",11.5526895226516,"Approved","OW407"
"2023-04-04 13:00",11.5546886983937,"Approved","OW407"
"2023-04-04 14:00",11.5546878741358,"Approved","OW407"
"2023-04-04 15:00",11.5436870498779,"Approved","OW407"
"2023-04-04 16:00",11.51268622562,"Approved","OW407"
"2023-04-04 17:00",11.4986854013621,"Approved","OW407"
"2023-04-04 18:00",11.4976845771042,"Approved","OW407"
"2023-04-04 19:00",11.4986837528463,"Approved","OW407"
"2023-04-04 20:00",11.4996829285884,"Approved","OW407"
"2023-04-04 21:00",11.5046821043304,"Approved","OW407"
"2023-04-04 22:00",11.4996812800725,"Approved","OW407"
"2023-04-04 23:00",11.5016804558146,"Approved","OW407"
"2023-04-05 00:00",11.5016796315567,"Approved","OW407"
"2023-04-05 01:00",11.5016788072988,"Approved","OW407"
"2023-04-05 02:00",11.5056779830409,"Approved","OW407"
"2023-04-05 03:00",11.513677158783,"Approved","OW407"
"2023-04-05 04:00",11.5176763345251,"Approved","OW407"
"2023-04-05 05:00",11.5236755102672,"Approved","OW407"
"2023-04-05 06:00",11.5296746860093,"Approved","OW407"
"2023-04-05 07:00",11.5366738617513,"Approved","OW407"
"2023-04-05 08:00",11.5426730374934,"Approved","OW407"
"2023-04-05 09:00",11.5496722132355,"Approved","OW407"
"2023-04-05 10:00",11.5556713889776,"Approved","OW407"
"2023-04-05 11:00",11.5586705647197,"Approved","OW407"
"2023-04-05 12:00",11.5636697404618,"Approved","OW407"
"2023-04-05 13:00",11.5686689162039,"Approved","OW407"
"2023-04-05 14:00",11.567668091946,"Approved","OW407"
"2023-04-05 15:00",11.5596672676881,"Approved","OW407"
"2023-04-05 16:00",11.5236664434301,"Approved","OW407"
"2023-04-05 17:00",11.5076656191722,"Approved","OW407"
"2023-04-05 18:00",11.5046647949143,"Approved","OW407"
"2023-04-05 19:00",11.5046639706564,"Approved","OW407"
"2023-04-05 20:00",11.5046631463985,"Approved","OW407"
"2023-04-05 21:00",11.5036623221406,"Approved","OW407"
"2023-04-05 22:00",11.5046614978827,"Approved","OW407"
"2023-04-05 23:00",11.5066606736248,"Approved","OW407"
"2023-04-06 00:00",11.5056598493669,"Approved","OW407"
"2023-04-06 01:00",11.506659025109,"Approved","OW407"
"2023-04-06 02:00",11.509658200851,"Approved","OW407"
"2023-04-06 03:00",11.5136573765931,"Approved","OW407"
"2023-04-06 04:00",11.5156565523352,"Approved","OW407"
"2023-04-06 05:00",11.5186557280773,"Approved","OW407"
"2023-04-06 06:00",11.5186549038194,"Approved","OW407"
"2023-04-06 07:00",11.5216540795615,"Approved","OW407"
"2023-04-06 08:00",11.5256532553036,"Approved","OW407"
"2023-04-06 09:00",11.5286524310457,"Approved","OW407"
"2023-04-06 10:00",11.5306516067878,"Approved","OW407"
"2023-04-06 11:00",11.5316507825299,"Approved","OW407"
"2023-04-06 12:00",11.5286499582719,"Approved","OW407"
"2023-04-06 13:00",11.530649134014,"Approved","OW407"
"2023-04-06 14:00",11.5296483097561,"Approved","OW407"
"2023-04-06 15:00",11.5246474854982,"Approved","OW407"
"2023-04-06 16:00",11.5216466612403,"Approved","OW407"
"2023-04-06 17:00",11.5186458369824,"Approved","OW407"
"2023-04-06 18:00",11.5156450127245,"Approved","OW407"
"2023-04-06 19:00",11.5166441884666,"Approved","OW407"
"2023-04-06 20:00",11.5156433642087,"Approved","OW407"
"2023-04-06 21:00",11.5136425399507,"Approved","OW407"
"2023-04-06 22:00",11.5136417156928,"Approved","OW407"
"2023-04-06 23:00",11.5146408914349,"Approved","OW407"
"2023-04-07 00:00",11.514640067177,"Approved","OW407"
"2023-04-07 01:00",11.5176392429191,"Approved","OW407"
"2023-04-07 02:00",11.5196384186612,"Approved","OW407"
"2023-04-07 03:00",11.5206375944033,"Approved","OW407"
"2023-04-07 04:00",11.5216367701454,"Approved","OW407"
"2023-04-07 05:00",11.5226359458875,"Approved","OW407"
"2023-04-07 06:00",11.5236351216296,"Approved","OW407"
"2023-04-07 07:00",11.5246342973716,"Approved","OW407"
"2023-04-07 08:00",11.5266334731137,"Approved","OW407"
"2023-04-07 09:00",11.5276326488558,"Approved","OW407"
"2023-04-07 10:00",11.5286318245979,"Approved","OW407"
"2023-04-07 11:00",11.53063100034,"Approved","OW407"
"2023-04-07 12:00",11.5326301760821,"Approved","OW407"
"2023-04-07 13:00",11.5336293518242,"Approved","OW407"
"2023-04-07 14:00",11.5336285275663,"Approved","OW407"
"2023-04-07 15:00",11.5306277033084,"Approved","OW407"
"2023-04-07 16:00",11.5306268790505,"Approved","OW407"
"2023-04-07 17:00",11.5286260547925,"Approved","OW407"
"2023-04-07 18:00",11.5266252305346,"Approved","OW407"
"2023-04-07 19:00",11.5226244062767,"Approved","OW407"
"2023-04-07 20:00",11.5196235820188,"Approved","OW407"
"2023-04-07 21:00",11.5186227577609,"Approved","OW407"
"2023-04-07 22:00",11.519621933503,"Approved","OW407"
"2023-04-07 23:00",11.5206211092451,"Approved","OW407"
"2023-04-08 00:00",11.5206202849872,"Approved","OW407"
"2023-04-08 01:00",11.5206194607293,"Approved","OW407"
"2023-04-08 02:00",11.5206186364714,"Approved","OW407"
"2023-04-08 03:00",11.5236178122134,"Approved","OW407"
"2023-04-08 04:00",11.5266169879555,"Approved","OW407"
"2023-04-08 05:00",11.5266161636976,"Approved","OW407"
"2023-04-08 06:00",11.5276153394397,"Approved","OW407"
"2023-04-08 07:00",11.5316145151818,"Approved","OW407"
"2023-04-08 08:00",11.5326136909239,"Approved","OW407"
"2023-04-08 09:00",11.533612866666,"Approved","OW407"
"2023-04-08 10:00",11.5396120424081,"Approved","OW407"
"2023-04-08 11:00",11.5406112181502,"Approved","OW407"
"2023-04-08 12:00",11.5406103938922,"Approved","OW407"
"2023-04-08 13:00",11.5416095696343,"Approved","OW407"
"2023-04-08 14:00",11.5406087453764,"Approved","OW407"
"2023-04-08 15:00",11.5366079211185,"Approved","OW407"
"2023-04-08 16:00",11.5316070968606,"Approved","OW407"
"2023-04-08 17:00",11.5296062726027,"Approved","OW407"
"2023-04-08 18:00",11.5276054483448,"Approved","OW407"
"2023-04-08 19:00",11.5266046240869,"Approved","OW407"
"2023-04-08 20:00",11.520603799829,"Approved","OW407"
"2023-04-08 21:00",11.5226029755711,"Approved","OW407"
"2023-04-08 22:00",11.5216021513131,"Approved","OW407"
"2023-04-08 23:00",11.5186013270552,"Approved","OW407"
"2023-04-09 00:00",11.5196005027973,"Approved","OW407"
"2023-04-09 01:00",11.5195996785394,"Approved","OW407"
"2023-04-09 02:00",11.5205988542815,"Approved","OW407"
"2023-04-09 03:00",11.5225980300236,"Approved","OW407"
"2023-04-09 04:00",11.5245972057657,"Approved","OW407"
"2023-04-09 05:00",11.5255963815078,"Approved","OW407"
"2023-04-09 06:00",11.5275955572499,"Approved","OW407"
"2023-04-09 07:00",11.530594732992,"Approved","OW407"
"2023-04-09 08:00",11.532593908734,"Approved","OW407"
"2023-04-09 09:00",11.5315930844761,"Approved","OW407"
"2023-04-09 10:00",11.5315922602182,"Approved","OW407"
"2023-04-09 11:00",11.5305914359603,"Approved","OW407"
"2023-04-09 12:00",11.5305906117024,"Approved","OW407"
"2023-04-09 13:00",11.5325897874445,"Approved","OW407"
"2023-04-09 14:00",11.5305889631866,"Approved","OW407"
"2023-04-09 15:00",11.5305881389287,"Approved","OW407"
"2023-04-09 16:00",11.5285873146708,"Approved","OW407"
"2023-04-09 17:00",11.5275864904128,"Approved","OW407"
"2023-04-09 18:00",11.5245856661549,"Approved","OW407"
"2023-04-09 19:00",11.522584841897,"Approved","OW407"
"2023-04-09 20:00",11.5195840176391,"Approved","OW407"
"2023-04-09 21:00",11.5175831933812,"Approved","OW407"
"2023-04-09 22:00",11.5205823691233,"Approved","OW407"
"2023-04-09 23:00",11.5185815448654,"Approved","OW407"
"2023-04-10 00:00",11.5205807206075,"Approved","OW407"
"2023-04-10 01:00",11.5205798963496,"Approved","OW407"
"2023-04-10 02:00",11.5215790720917,"Approved","OW407"
"2023-04-10 03:00",11.5225782478337,"Approved","OW407"
"2023-04-10 04:00",11.5225774235758,"Approved","OW407"
"2023-04-10 05:00",11.5225765993179,"Approved","OW407"
"2023-04-10 06:00",11.52357577506,"Approved","OW407"
"2023-04-10 07:00",11.5235749508021,"Approved","OW407"
"2023-04-10 08:00",11.5245741265442,"Approved","OW407"
"2023-04-10 09:00",11.5245733022863,"Approved","OW407"
"2023-04-10 10:00",11.5255724780284,"Approved","OW407"
"2023-04-10 11:00",11.5275716537705,"Approved","OW407"
"2023-04-10 12:00",11.5285708295126,"Approved","OW407"
"2023-04-10 13:00",11.5315700052546,"Approved","OW407"
"2023-04-10 14:00",11.5305691809967,"Approved","OW407"
"2023-04-10 15:00",11.5305683567388,"Approved","OW407"
"2023-04-10 16:00",11.5335675324809,"Approved","OW407"
"2023-04-10 17:00",11.535566708223,"Approved","OW407"
"2023-04-10 18:00",11.5355658839651,"Approved","OW407"
"2023-04-10 19:00",11.5315650597072,"Approved","OW407"
"2023-04-10 20:00",11.5295642354493,"Approved","OW407"
"2023-04-10 21:00",11.5285634111914,"Approved","OW407"
"2023-04-10 22:00",11.5315625869335,"Approved","OW407"
"2023-04-10 23:00",11.5325617626755,"Approved","OW407"
"2023-04-11 00:00",11.5335609384176,"Approved","OW407"
"2023-04-11 01:00",11.5375601141597,"Approved","OW407"
"2023-04-11 02:00",11.5395592899018,"Approved","OW407"
"2023-04-11 03:00",11.5425584656439,"Approved","OW407"
"2023-04-11 04:00",11.544557641386,"Approved","OW407"
"2023-04-11 05:00",11.5455568171281,"Approved","OW407"
"2023-04-11 06:00",11.5465559928702,"Approved","OW407"
"2023-04-11 07:00",11.5455551686123,"Approved","OW407"
"2023-04-11 08:00",11.5475543443543,"Approved","OW407"
"2023-04-11 09:00",11.5485535200964,"Approved","OW407"
"2023-04-11 10:00",11.5475526958385,"Approved","OW407"
"2023-04-11 11:00",11.5495518715806,"Approved","OW407"
"2023-04-11 12:00",11.5505510473227,"Approved","OW407"
"2023-04-11 13:00",11.5505502230648,"Approved","OW407"
"2023-04-11 14:00",11.5525493988069,"Approved","OW407"
"2023-04-11 15:00",11.549548574549,"Approved","OW407"
"2023-04-11 16:00",11.5415477502911,"Approved","OW407"
"2023-04-11 17:00",11.5295469260332,"Approved","OW407"
"2023-04-11 18:00",11.5205461017752,"Approved","OW407"
"2023-04-11 19:00",11.5225452775173,"Approved","OW407"
"2023-04-11 20:00",11.5215444532594,"Approved","OW407"
"2023-04-11 21:00",11.5215436290015,"Approved","OW407"
"2023-04-11 22:00",11.5395428047436,"Approved","OW407"
"2023-04-11 23:00",11.5555419804857,"Approved","OW407"
"2023-04-12 00:00",11.5515411562278,"Approved","OW407"
"2023-04-12 01:00",11.5365403319699,"Approved","OW407"
"2023-04-12 02:00",11.536539507712,"Approved","OW407"
"2023-04-12 03:00",11.5455386834541,"Approved","OW407"
"2023-04-12 04:00",11.5515378591961,"Approved","OW407"
"2023-04-12 05:00",11.5535370349382,"Approved","OW407"
"2023-04-12 06:00",11.5545362106803,"Approved","OW407"
"2023-04-12 07:00",11.5605353864224,"Approved","OW407"
"2023-04-12 08:00",11.5665345621645,"Approved","OW407"
"2023-04-12 09:00",11.5695337379066,"Approved","OW407"
"2023-04-12 10:00",11.5735329136487,"Approved","OW407"
"2023-04-12 11:00",11.5765320893908,"Approved","OW407"
"2023-04-12 12:00",11.5795312651329,"Approved","OW407"
"2023-04-12 13:00",11.580530440875,"Approved","OW407"
"2023-04-12 14:00",11.575529616617,"Approved","OW407"
"2023-04-12 15:00",11.5665287923591,"Approved","OW407"
"2023-04-12 16:00",11.5365279681012,"Approved","OW407"
"2023-04-12 17:00",11.5235271438433,"Approved","OW407"
"2023-04-12 18:00",11.5245263195854,"Approved","OW407"
"2023-04-12 19:00",11.5255254953275,"Approved","OW407"
"2023-04-12 20:00",11.5255246710696,"Approved","OW407"
"2023-04-12 21:00",11.5265238468117,"Approved","OW407"
"2023-04-12 22:00",11.5265230225538,"Approved","OW407"
"2023-04-12 23:00",11.5255221982958,"Approved","OW407"
"2023-04-13 00:00",11.5265213740379,"Approved","OW407"
"2023-04-13 01:00",11.52652054978,"Approved","OW407"
"2023-04-13 02:00",11.5305197255221,"Approved","OW407"
"2023-04-13 03:00",11.5365189012642,"Approved","OW407"
"2023-04-13 04:00",11.5405180770063,"Approved","OW407"
"2023-04-13 05:00",11.5435172527484,"Approved","OW407"
"2023-04-13 06:00",11.5475164284905,"Approved","OW407"
"2023-04-13 07:00",11.5515156042326,"Approved","OW407"
"2023-04-13 08:00",11.5565147799747,"Approved","OW407"
"2023-04-13 09:00",11.5605139557167,"Approved","OW407"
"2023-04-13 10:00",11.5665131314588,"Approved","OW407"
"2023-04-13 11:00",11.5705123072009,"Approved","OW407"
"2023-04-13 12:00",11.576511482943,"Approved","OW407"
"2023-04-13 13:00",11.5785106586851,"Approved","OW407"
"2023-04-13 14:00",11.5755098344272,"Approved","OW407"
"2023-04-13 15:00",11.5635090101693,"Approved","OW407"
"2023-04-13 16:00",11.5485081859114,"Approved","OW407"
"2023-04-13 17:00",11.5365073616535,"Approved","OW407"
"2023-04-13 18:00",11.5305065373956,"Approved","OW407"
"2023-04-13 19:00",11.5325057131376,"Approved","OW407"
"2023-04-13 20:00",11.5355048888797,"Approved","OW407"
"2023-04-13 21:00",11.5365040646218,"Approved","OW407"
"2023-04-13 22:00",11.5375032403639,"Approved","OW407"
"2023-04-13 23:00",11.534502416106,"Approved","OW407"
"2023-04-14 00:00",11.5345015918481,"Approved","OW407"
"2023-04-14 01:00",11.5385007675902,"Approved","OW407"
"2023-04-14 02:00",11.5424999433323,"Approved","OW407"
"2023-04-14 03:00",11.5484991190744,"Approved","OW407"
"2023-04-14 04:00",11.5544982948164,"Approved","OW407"
"2023-04-14 05:00",11.5534974705585,"Approved","OW407"
"2023-04-14 06:00",11.5564966463006,"Approved","OW407"
"2023-04-14 07:00",11.5604958220427,"Approved","OW407"
"2023-04-14 08:00",11.5614949977848,"Approved","OW407"
"2023-04-14 09:00",11.5664941735269,"Approved","OW407"
"2023-04-14 10:00",11.569493349269,"Approved","OW407"
"2023-04-14 11:00",11.5724925250111,"Approved","OW407"
"2023-04-14 12:00",11.5764917007532,"Approved","OW407"
"2023-04-14 13:00",11.5774908764953,"Approved","OW407"
"2023-04-14 14:00",11.5754900522373,"Approved","OW407"
"2023-04-14 15:00",11.5664892279794,"Approved","OW407"
"2023-04-14 16:00",11.5404884037215,"Approved","OW407"
"2023-04-14 17:00",11.5324875794636,"Approved","OW407"
"2023-04-14 18:00",11.5324867552057,"Approved","OW407"
"2023-04-14 19:00",11.5354859309478,"Approved","OW407"
"2023-04-14 20:00",11.5364851066899,"Approved","OW407"
"2023-04-14 21:00",11.536484282432,"Approved","OW407"
"2023-04-14 22:00",11.5344834581741,"Approved","OW407"
"2023-04-14 23:00",11.5324826339162,"Approved","OW407"
"2023-04-15 00:00",11.5324818096582,"Approved","OW407"
"2023-04-15 01:00",11.5344809854003,"Approved","OW407"
"2023-04-15 02:00",11.5344801611424,"Approved","OW407"
"2023-04-15 03:00",11.5394793368845,"Approved","OW407"
"2023-04-15 04:00",11.5434785126266,"Approved","OW407"
"2023-04-15 05:00",11.5464776883687,"Approved","OW407"
"2023-04-15 06:00",11.5494768641108,"Approved","OW407"
"2023-04-15 07:00",11.5504760398529,"Approved","OW407"
"2023-04-15 08:00",11.552475215595,"Approved","OW407"
"2023-04-15 09:00",11.554474391337,"Approved","OW407"
"2023-04-15 10:00",11.5574735670791,"Approved","OW407"
"2023-04-15 11:00",11.5624727428212,"Approved","OW407"
"2023-04-15 12:00",11.5634719185633,"Approved","OW407"
"2023-04-15 13:00",11.5644710943054,"Approved","OW407"
"2023-04-15 14:00",11.5644702700475,"Approved","OW407"
"2023-04-15 15:00",11.5504694457896,"Approved","OW407"
"2023-04-15 16:00",11.5384686215317,"Approved","OW407"
"2023-04-15 17:00",11.5324677972738,"Approved","OW407"
"2023-04-15 18:00",11.5294669730159,"Approved","OW407"
"2023-04-15 19:00",11.5294661487579,"Approved","OW407"
"2023-04-15 20:00",11.5304653245,"Approved","OW407"
"2023-04-15 21:00",11.5314645002421,"Approved","OW407"
"2023-04-15 22:00",11.5314636759842,"Approved","OW407"
"2023-04-15 23:00",11.5334628517263,"Approved","OW407"
"2023-04-16 00:00",11.5324620274684,"Approved","OW407"
"2023-04-16 01:00",11.5344612032105,"Approved","OW407"
"2023-04-16 02:00",11.5344603789526,"Approved","OW407"
"2023-04-16 03:00",11.5384595546947,"Approved","OW407"
"2023-04-16 04:00",11.5404587304368,"Approved","OW407"
"2023-04-16 05:00",11.5394579061788,"Approved","OW407"
"2023-04-16 06:00",11.5414570819209,"Approved","OW407"
"2023-04-16 07:00",11.544456257663,"Approved","OW407"
"2023-04-16 08:00",11.5454554334051,"Approved","OW407"
"2023-04-16 09:00",11.5454546091472,"Approved","OW407"
"2023-04-16 10:00",11.5484537848893,"Approved","OW407"
"2023-04-16 11:00",11.5504529606314,"Approved","OW407"
"2023-04-16 12:00",11.5544521363735,"Approved","OW407"
"2023-04-16 13:00",11.5564513121156,"Approved","OW407"
"2023-04-16 14:00",11.5554504878576,"Approved","OW407"
"2023-04-16 15:00",11.5454496635997,"Approved","OW407"
"2023-04-16 16:00",11.5364488393418,"Approved","OW407"
"2023-04-16 17:00",11.5334480150839,"Approved","OW407"
"2023-04-16 18:00",11.530447190826,"Approved","OW407"
"2023-04-16 19:00",11.5324463665681,"Approved","OW407"